Weather History for West Point, VA

Change the Weather History Date:

Sunday, March 9, 2014

  Actual Average (KRIC) Record (KRIC)
Temperature  
Mean Temperature 46 °F 46 °F  
Max Temperature 60 °F 58 °F 82 °F (2000)
Min Temperature 32 °F 35 °F 16 °F (1960)
Degree Days  
Heating Degree Days 20 19  
Month to date heating degree days 180  
Since 1 July heating degree days 3116  
Cooling Degree Days 0 0  
Month to date cooling degree days 0  
Year to date cooling degree days 0  
Moisture  
Dew Point 31 °F    
Average Humidity 52    
Maximum Humidity 82    
Minimum Humidity 24    
Precipitation  
Precipitation 0.00 in 0.12 in 1.81 in (1998)
Month to date precipitation 1.07  
Year to date precipitation 6.87  
Snow  
Snow 0.00 in 0.10 in 5.40 in (1960)
Month to date snowfall 0.4  
Since 1 July snowfall 10.0  
Snow Depth -    
Sea Level Pressure  
Sea Level Pressure 30.02 in    
Wind  
Wind Speed 3 mph (North)    
Max Wind Speed 10 mph    
Max Gust Speed 16 mph    
Visibility 10 miles    
Events      
T = Trace of Precipitation, MM = Missing Value Source: NWS Daily Summary

Daily Weather History Graph

Daily Weather History Graph

Search for Another Location

Airport:

Trip Planner

Search our weather history database for the weather conditions in past years. The results will help you decide how hot, cold, wet, or windy it might be!

Date:

Astronomy

Mar. 09, 2014 Rise Set
Actual Time 7:27 AM EDT 7:08 PM EDT
Civil Twilight 7:00 AM EDT 7:34 PM EDT
Nautical Twilight 6:30 AM EDT 8:05 PM EDT
Astronomical Twilight 6:00 AM EDT 8:35 PM EDT
Moon 1:04 PM EDT (3/9) 3:45 AM EDT (3/9)
Length of Visible Light 12h 33m
Length of Day
11h 41m
First Quarter, 61% of the Moon is Illuminated
Mar 9
First Quarter
Mar 16
Full
Mar 23
Last Quarter
Mar 30
New
Apr 7
First Quarter

Hourly Weather History & Observations

Time (EDT) Temp. Windchill Dew Point Humidity Pressure Visibility Wind Dir Wind Speed Gust Speed Precip Events Conditions
12:15 AM 44.2 °F 41.8 °F 37.4 °F 77% 29.92 in 10.0 mi WSW 4.6 mph - N/A   Scattered Clouds
12:35 AM 46.9 °F - 37.0 °F 68% 29.93 in 10.0 mi Calm Calm - N/A   Scattered Clouds
12:55 AM 45.3 °F - 36.7 °F 72% 29.93 in 10.0 mi Calm Calm - N/A   Mostly Cloudy
1:15 AM 39.7 °F - 34.5 °F 82% 29.93 in 10.0 mi Calm Calm - N/A   Mostly Cloudy
1:35 AM 44.2 °F - 37.9 °F 79% 29.93 in 10.0 mi Calm Calm - N/A   Overcast
1:55 AM 42.1 °F - 36.9 °F 82% 29.92 in 10.0 mi Calm Calm - N/A   Overcast
3:15 AM 43.9 °F - 38.1 °F 80% 29.93 in 10.0 mi Calm Calm - N/A   Scattered Clouds
3:40 AM 43.7 °F - 38.3 °F 81% 29.92 in 10.0 mi Calm Calm - N/A   Clear
3:55 AM 44.8 °F - 39.6 °F 82% 29.92 in 10.0 mi Calm Calm - N/A   Scattered Clouds
4:15 AM 45.3 °F - 40.1 °F 82% 29.91 in 10.0 mi Calm Calm - N/A   Scattered Clouds
4:35 AM 46.0 °F - 40.5 °F 81% 29.91 in 10.0 mi Calm Calm - N/A   Mostly Cloudy
4:55 AM 45.7 °F - 40.1 °F 81% 29.91 in 10.0 mi Calm Calm - N/A   Scattered Clouds
5:15 AM 46.0 °F - 39.7 °F 79% 29.91 in 10.0 mi Calm Calm - N/A   Clear
5:35 AM 47.1 °F - 39.4 °F 74% 29.92 in 10.0 mi Calm Calm - N/A   Clear
5:55 AM 46.0 °F - 39.7 °F 79% 29.93 in 10.0 mi Calm Calm - N/A   Scattered Clouds
6:15 AM 50.4 °F - 37.6 °F 62% 29.94 in 10.0 mi NNW 4.6 mph - N/A   Scattered Clouds
6:35 AM 52.7 °F - 34.3 °F 50% 29.96 in 10.0 mi North 4.6 mph - N/A   Mostly Cloudy
6:55 AM 53.2 °F - 32.7 °F 46% 29.98 in 10.0 mi North 4.6 mph - N/A   Overcast
7:15 AM 51.8 °F - 32.4 °F 48% 29.99 in 10.0 mi NNE 5.8 mph - N/A   Scattered Clouds
7:35 AM 51.1 °F - 32.5 °F 49% 30.01 in 10.0 mi North 6.9 mph - N/A   Clear
7:55 AM 50.9 °F - 32.9 °F 50% 30.03 in 10.0 mi NNE 4.6 mph - N/A   Clear
8:15 AM 50.2 °F - 33.1 °F 52% 30.03 in 10.0 mi NNE 3.5 mph - N/A   Scattered Clouds
8:35 AM 50.2 °F - 33.3 °F 52% 30.05 in 10.0 mi North 5.8 mph - N/A   Mostly Cloudy
8:55 AM 50.7 °F - 33.4 °F 52% 30.06 in 10.0 mi Calm Calm - N/A   Overcast
9:15 AM 51.8 °F - 33.8 °F 50% 30.07 in 10.0 mi North 5.8 mph - N/A   Scattered Clouds
9:35 AM 53.2 °F - 33.8 °F 48% 30.08 in 10.0 mi NNW 4.6 mph - N/A   Clear
9:55 AM 53.6 °F - 33.3 °F 46% 30.08 in 10.0 mi North 8.1 mph 16.1 mph N/A   Clear
10:15 AM 54.7 °F - 33.8 °F 45% 30.08 in 10.0 mi North 10.4 mph - N/A   Mostly Cloudy
10:35 AM 55.0 °F - 33.6 °F 44% 30.07 in 10.0 mi NNW 6.9 mph - N/A   Overcast
10:55 AM 55.4 °F - 33.6 °F 44% 30.08 in 10.0 mi North 9.2 mph - N/A   Overcast
11:15 AM 55.8 °F - 33.3 °F 43% 30.08 in 10.0 mi North 5.8 mph - N/A   Scattered Clouds
11:35 AM 54.9 °F - 32.0 °F 42% 30.08 in 10.0 mi NNW 3.5 mph - N/A   Clear
11:55 AM 55.6 °F - 32.2 °F 41% 30.09 in 10.0 mi NNW 6.9 mph - N/A   Clear
12:15 PM 56.7 °F - 32.5 °F 40% 30.09 in 10.0 mi NNW 6.9 mph - N/A   Scattered Clouds
12:35 PM 56.8 °F - 32.0 °F 39% 30.09 in 10.0 mi NW 6.9 mph - N/A   Mostly Cloudy
12:55 PM 57.6 °F - 31.5 °F 37% 30.09 in 10.0 mi NNW 9.2 mph - N/A   Scattered Clouds
1:15 PM 57.6 °F - 30.9 °F 36% 30.08 in 10.0 mi North 6.9 mph - N/A   Clear
1:35 PM 57.9 °F - 30.7 °F 36% 30.08 in 10.0 mi NW 6.9 mph - N/A   Clear
1:55 PM 57.4 °F - 29.7 °F 35% 30.07 in 10.0 mi NNW 6.9 mph - N/A   Scattered Clouds
2:15 PM 58.6 °F - 29.5 °F 33% 30.07 in 10.0 mi NW 8.1 mph - N/A   Clear
2:35 PM 59.0 °F - 29.3 °F 32% 30.06 in 10.0 mi NW 6.9 mph - N/A   Clear
2:55 PM 59.2 °F - 28.9 °F 32% 30.06 in 10.0 mi NNW 6.9 mph - N/A   Clear
3:15 PM 58.8 °F - 28.4 °F 31% 30.05 in 10.0 mi WNW 5.8 mph - N/A   Clear
3:35 PM 59.2 °F - 28.2 °F 31% 30.04 in 10.0 mi North 6.9 mph - N/A   Clear
3:55 PM 59.4 °F - 27.1 °F 29% 30.04 in 10.0 mi NNW 9.2 mph - N/A   Clear
4:15 PM 59.4 °F - 27.1 °F 29% 30.04 in 10.0 mi NNW 8.1 mph - N/A   Clear
4:35 PM 59.9 °F - 26.8 °F 28% 30.04 in 10.0 mi North 8.1 mph - N/A   Clear
4:55 PM 59.9 °F - 26.6 °F 28% 30.03 in 10.0 mi North 8.1 mph - N/A   Clear
5:15 PM 58.6 °F - 22.3 °F 25% 30.03 in 10.0 mi ENE 10.4 mph - N/A   Clear
5:35 PM 57.6 °F - 21.7 °F 25% 30.02 in 10.0 mi North 9.2 mph - N/A   Clear
5:55 PM 56.5 °F - 19.9 °F 24% 30.01 in 10.0 mi North 9.2 mph - N/A   Clear
6:15 PM 55.4 °F - 19.8 °F 25% 30.02 in 10.0 mi NE 6.9 mph - N/A   Scattered Clouds
6:35 PM 54.5 °F - 19.8 °F 26% 30.03 in 10.0 mi ENE 5.8 mph - N/A   Scattered Clouds
6:55 PM 52.5 °F - 20.5 °F 29% 30.03 in 10.0 mi East 4.6 mph - N/A   Scattered Clouds
7:15 PM 50.5 °F - 21.7 °F 32% 30.04 in 10.0 mi East 6.9 mph - N/A   Clear
7:35 PM 50.0 °F - 22.1 °F 33% 30.04 in 10.0 mi NNE 3.5 mph - N/A   Clear
7:55 PM 46.4 °F 44.3 °F 25.2 °F 43% 30.04 in 10.0 mi ESE 4.6 mph - N/A   Clear
8:15 PM 44.2 °F 42.7 °F 25.7 °F 48% 30.04 in 10.0 mi ENE 3.5 mph - N/A   Mostly Cloudy
8:35 PM 44.1 °F - 24.8 °F 47% 30.05 in 10.0 mi Calm Calm - N/A   Scattered Clouds
8:55 PM 43.0 °F 40.3 °F 27.0 °F 53% 30.06 in 10.0 mi SSE 4.6 mph - N/A   Scattered Clouds
9:15 PM 41.9 °F - 25.5 °F 52% 30.07 in 10.0 mi Calm Calm - N/A   Scattered Clouds
9:35 PM 38.3 °F - 27.0 °F 64% 30.07 in 10.0 mi Calm Calm - N/A   Clear
9:55 PM 41.5 °F - 25.9 °F 54% 30.08 in 10.0 mi Calm Calm - N/A   Clear
10:15 PM 40.3 °F - 26.6 °F 58% 30.09 in 10.0 mi Calm Calm - N/A   Scattered Clouds
10:35 PM 38.1 °F - 27.3 °F 65% 30.07 in 10.0 mi Calm Calm - N/A   Scattered Clouds
10:55 PM 39.6 °F - 26.2 °F 59% 30.08 in 10.0 mi Calm Calm - N/A   Scattered Clouds
11:15 PM 34.3 °F 31.4 °F 25.0 °F 69% 30.06 in 10.0 mi ENE 3.5 mph - N/A   Scattered Clouds
11:35 PM 35.6 °F - 25.9 °F 68% 30.06 in 10.0 mi Calm Calm - N/A   Clear
11:55 PM 37.4 °F - 27.3 °F 67% 30.06 in 10.0 mi Calm Calm - N/A   Clear
12:15 AM 32.7 °F - 25.2 °F 74% 30.06 in 10.0 mi Calm Calm - N/A   Clear
12:35 AM 33.3 °F - 26.8 °F 77% 30.06 in 10.0 mi Calm Calm - N/A   Scattered Clouds
12:55 AM 33.4 °F - 26.2 °F 75% 30.05 in 10.0 mi Calm Calm - N/A   Scattered Clouds